Location: Unspecified
(0.0000°N, 0.0000°E)
Time: 17:44:09
(UTC+00:00)

OBJECT AA - Visible Passes

Search period start: 17 May 2026 00:00
Search period end: 27 May 2026 00:00
Orbit: 537 x 551 km, 97.4° (Epoch: 17 May)

Date Brightness Start Highest point End Pass type
(mag) Time Alt. Az. Time Alt. Az. Time Alt. Az.
17 May ? 04:22:57 10° SSE 04:26:51 62° ENE 04:30:45 10° N visible
18 May ? 04:16:49 10° SSE 04:20:39 49° E 04:24:28 10° N visible
19 May ? 04:10:45 10° SSE 04:14:26 38° E 04:18:07 10° N visible
20 May ? 04:04:42 10° SE 04:08:14 31° ENE 04:11:43 10° NNE visible
21 May ? 03:58:43 10° SE 04:02:00 25° E 04:05:16 10° NNE visible
22 May ? 03:52:49 10° SE 03:55:47 20° ENE 03:58:44 10° NNE visible
22 May ? 05:28:19 10° SW 05:30:07 13° WSW 05:31:55 10° WNW visible
23 May ? 03:47:00 10° ESE 03:49:33 17° ENE 03:52:05 10° NE visible
23 May ? 05:21:28 10° SW 05:23:54 16° WSW 05:26:20 10° WNW visible
24 May ? 03:41:21 10° ESE 03:43:19 13° ENE 03:45:17 10° NE visible
24 May ? 05:14:47 10° SSW 05:17:40 19° WSW 05:20:33 10° NW visible
25 May ? 03:36:09 10° E 03:37:05 11° ENE 03:38:01 10° ENE visible
25 May ? 05:08:13 10° SSW 05:11:26 24° WSW 05:14:38 10° NW visible
26 May ? 05:01:44 10° SSW 05:05:12 29° WSW 05:08:39 10° NW visible
